[Iaude] MPEC A33: 2024 AM [a=1.93,e=0.51,i=2.6,H=27.9]

mpec at marsden.cfa.harvard.edu mpec at marsden.cfa.harvard.edu
Thu Jan 4 06:15:29 EST 2024


M.P.E.C. 2024-A33                               Issued 2024 January 4, 11:13 UT

     The Minor Planet Electronic Circulars contain information on unusual
         minor planets, routine data on comets and natural satellites,
         and occasional editorial announcements.  They are published
    on behalf of Division F of the International Astronomical Union by the
          Minor Planet Center, Smithsonian Astrophysical Observatory,
                          Cambridge, MA 02138, U.S.A.
			  
             Prepared using the Tamkin Foundation Computer Network

                              MPC at CFA.HARVARD.EDU
            URL https://www.minorplanetcenter.net/    ISSN 1523-6714

                                    2024 AM                                     


Observations:
     K24A00M* C2024 01 03.29368905 51 25.241+10 07 36.94         20.64wXEA033F52
     K24A00M  C2024 01 03.31707405 51 47.399+10 07 06.88         20.70wXEA033F52
     K24A00M  C2024 01 03.32882905 51 58.631+10 06 51.13         20.79wXEA033F52
     K24A00M  C2024 01 03.40777905 52 58.603+10 03 06.76         20.6 GVEA033H01
     K24A00M  C2024 01 03.41197805 53 02.965+10 02 58.89         20.3 GVEA033H01
     K24A00M  C2024 01 03.42637505 53 18.077+10 02 31.33         20.7 GVEA033H01
     K24A00M  C2024 01 03.42986305 53 35.638+10 04 18.19         20.70GVEA033F52
     K24A00M  C2024 01 03.42995105 53 21.876+10 02 24.69         20.4 GVEA033H01
     K24A00M  C2024 01 03.43050705 53 36.258+10 04 17.08         20.45GVEA033F52
     K24A00M KB2024 01 04.12421 06 09 17.34 +09 39 07.7          20.1 GXEA033H36
     K24A00M KB2024 01 04.12796 06 09 22.76 +09 38 59.8          20.3 GXEA033H36
     K24A00M KB2024 01 04.13546 06 09 33.60 +09 38 42.7          19.9 GXEA033H36
     K24A00M |C2024 01 04.19924006 10 55.220+09 44 50.50         20.5 GVEA033807
     K24A00M |C2024 01 04.20084006 10 57.550+09 44 45.20         19.8 GVEA033807
     K24A00M |C2024 01 04.20244006 10 59.880+09 44 41.70         19.6 GVEA033807
     K24A00M KB2024 01 04.23238 06 11 55.32 +09 34 46.1          19.4 GVEA033734
     K24A00M KB2024 01 04.24145 06 12 08.91 +09 34 21.8          19.3 GVEA033734
     K24A00M KB2024 01 04.25051 06 12 22.42 +09 33 58.0          19.6 GVEA033734
     K24A00M KB2024 01 04.25958 06 12 36.03 +09 33 33.0          19.9 GVEA033734

Observer details:
734 Farpoint Observatory, Eskridge.  Observers D. Cromer, G. Hug, D. Goodin,
    R. Valentine.  Measurer D. Cromer.  0.69-m f/3.54 reflector + CMO.
807 Cerro Tololo Observatory, La Serena.  Observers T. Linder, R. Holmes.
    0.61-m f/11 Ritchey-Chretien + CCD.
F52 Pan-STARRS 2, Haleakala.  Observers J. Herman, T. Lowe, P. Minguez, A.
    Schultz, I. Smith.  Measurers K. Chambers, T. de Boer, J. Fairlamb, H.
    Gao, M. Huber, C.-C. Lin, E. Magnier, Y. Ramanjooloo, R. Wainscoat, R.
    Weryk.  1.8-m Ritchey-Chretien + CCD.
H01 Magdalena Ridge Observatory, Socorro.  Observers W. H. Ryan, E. V. Ryan.
    Measurer W. H. Ryan.  2.4-m f/8.9 Ritchey-Chretien + CCD.
H36 Sandlot Observatory, Scranton.  Observer G. Hug.  0.56-m f/4.8 reflector +
    CMO.

Orbital elements:
2024 AM                                                  Earth MOID = 0.0005 AU
Epoch 2023 Sept. 13.0 TT = JDT 2460200.5                Veres                   
M 308.34259              (2000.0)            P               Q                  
n   0.36738462     Peri.   29.07674     -0.73903447     -0.67230861             
a   1.9307323      Node   108.61242     +0.60902630     -0.69390960             
e   0.5128909      Incl.    2.58659     +0.28794968     -0.25785772             
P   2.68           H   27.91          G   0.15           U   7                  
Residuals in seconds of arc
240103 F52  0.3-  0.0     240103 H01  0.0   0.1+    240104 807  0.3+  0.1+
240103 F52  1.1-  0.0     240103 F52  0.1+  0.0     240104 734  0.5-  0.1+
240103 F52  0.0   0.0     240104 H36  0.5-  0.3-    240104 734  0.7+  0.3-
240103 H01  0.0   0.0     240104 H36  0.5-  0.1+    240104 734  0.1+  0.2+
240103 H01  0.0   0.0     240104 H36  0.4-  0.1-    240104 734  0.3-  0.2-
240103 H01  0.1-  0.2-    240104 807  0.2-  0.7+
240103 F52  0.3+  0.1+    240104 807  0.1+  0.5-

Ephemeris:
2024 AM                  a,e,i = 1.93, 0.51, 3                   q = 0.9405
Date    TT    R. A. (2000) Decl.     Delta      r    Elong.  Phase     V
2023 12 05    04 48 00.1 +12 49 18   0.1898  1.1732   170.5     8.0    25.2
...
2023 12 20    04 51 42.6 +11 39 58   0.09912 1.0786   162.0    16.4    23.9
...
2023 12 28    05 04 04.9 +11 08 03   0.05579 1.0351   157.3    21.5    22.8
...
2024 01 03    05 46 15.0 +10 15 35   0.02489 1.0067   160.0    19.5    20.9
2024 01 04    06 05 53.5 +09 47 48   0.02002 1.0024   162.4    17.3    20.3
2024 01 05    06 37 37.6 +08 54 49   0.01539 0.9982   165.2    14.6    19.7
...
2024 01 11    14 52 20.8 -10 42 54   0.01981 0.9756    66.2   112.8    23.7
...
2024 01 19    16 00 49.6 -11 21 52   0.06002 0.9535    58.1   118.9    26.5
...
2024 02 03    16 27 25.0 -11 56 40   0.1364  0.9398    66.6   105.7    27.4

M. P. C. Staff               (C) Copyright 2024 MPC           M.P.E.C. 2024-A33





More information about the Iaude mailing list